Location: Stoke Bliss
(52.2667°N, 2.5167°W)
Time: 21:01:25
(UTC+00:00)

Cosmos 2221 Rocket - Pass Details

Date: 03 March 2021
Orbit: 621 x 647 km, 82.5° (Epoch: 15 April)

Event Time Altitude Azimuth Distance (km) Brightness Sun altitude
Rises 20:16:29 0° 349° (N) 2,916 7.4 -22.4°
Reaches altitude 10° 20:18:43 10° 351° (N) 2,005 6.5 -22.7°
Maximum altitude 20:23:10 79° 78° (ENE) 643 3.4 -23.4°
Enters shadow 20:23:10 79° 78° (ENE) 643 3.4 -23.4°
